Time,TemperatureF,DewpointF,PressureIn,WindDirection,WindDirectionDegrees,WindSpeedMPH,WindSpeedGustMPH,Humidity,HourlyPrecipIn,Conditions,Clouds,dailyrainin,SoftwareType,DateUTC
2013-11-23 00:04:00,65.2,64.0,30.18,ENE,57,5.0,10.0,94,0.00,,,0.00,weatherlink.com 1.10,2013-11-23 06:04:00,
2013-11-23 00:19:00,65.2,64.0,30.18,ENE,57,7.0,11.0,94,0.00,,,0.00,weatherlink.com 1.10,2013-11-23 06:19:00,
2013-11-23 00:34:00,65.1,63.0,30.17,NE,46,8.0,10.0,93,0.00,,,0.00,weatherlink.com 1.10,2013-11-23 06:34:00,
2013-11-23 00:50:00,65.1,63.0,30.17,NE,35,3.0,8.0,93,0.00,,,0.00,weatherlink.com 1.10,2013-11-23 06:50:00,
2013-11-23 01:05:00,65.0,63.0,30.17,NE,53,7.0,10.0,93,0.00,,,0.00,weatherlink.com 1.10,2013-11-23 07:05:00,
2013-11-23 01:20:00,64.9,63.0,30.17,NNE,30,4.0,10.0,93,0.00,,,0.00,weatherlink.com 1.10,2013-11-23 07:20:00,
2013-11-23 01:35:00,64.7,63.0,30.17,ENE,60,5.0,12.0,93,0.00,,,0.00,weatherlink.com 1.10,2013-11-23 07:35:00,
2013-11-23 01:50:00,64.6,63.0,30.17,NE,40,1.0,10.0,93,0.00,,,0.00,weatherlink.com 1.10,2013-11-23 07:50:00,
2013-11-23 02:05:00,64.6,63.0,30.17,NE,37,7.0,10.0,93,0.00,,,0.00,weatherlink.com 1.10,2013-11-23 08:05:00,
2013-11-23 02:20:00,64.6,63.0,30.17,NE,55,2.0,8.0,93,0.00,,,0.00,weatherlink.com 1.10,2013-11-23 08:20:00,
2013-11-23 02:35:00,64.5,63.0,30.17,NE,53,5.0,11.0,93,0.00,,,0.00,weatherlink.com 1.10,2013-11-23 08:35:00,
2013-11-23 02:50:00,64.4,62.0,30.17,ENE,62,3.0,8.0,93,0.00,,,0.00,weatherlink.com 1.10,2013-11-23 08:50:00,
2013-11-23 03:05:00,64.4,63.0,30.17,NE,39,5.0,7.0,94,0.00,,,0.00,weatherlink.com 1.10,2013-11-23 09:05:00,
2013-11-23 03:20:00,64.2,63.0,30.16,NE,46,4.0,8.0,94,0.00,,,0.00,weatherlink.com 1.10,2013-11-23 09:20:00,
2013-11-23 03:35:00,64.1,62.0,30.16,ENE,57,4.0,11.0,94,0.00,,,0.00,weatherlink.com 1.10,2013-11-23 09:35:00,
2013-11-23 03:50:00,64.0,62.0,30.16,NE,40,6.0,9.0,94,0.00,,,0.00,weatherlink.com 1.10,2013-11-23 09:50:00,
2013-11-23 04:05:00,63.9,62.0,30.16,NE,54,5.0,9.0,94,0.00,,,0.00,weatherlink.com 1.10,2013-11-23 10:05:00,
2013-11-23 04:20:00,63.8,62.0,30.17,NE,46,8.0,14.0,94,0.00,,,0.00,weatherlink.com 1.10,2013-11-23 10:20:00,
2013-11-23 04:35:00,63.5,62.0,30.17,NE,46,6.0,11.0,94,0.00,,,0.00,weatherlink.com 1.10,2013-11-23 10:35:00,
2013-11-23 04:50:00,63.3,62.0,30.18,NE,54,5.0,9.0,95,0.00,,,0.00,weatherlink.com 1.10,2013-11-23 10:50:00,
2013-11-23 05:05:00,63.2,62.0,30.17,NE,50,10.0,10.0,95,0.00,,,0.00,weatherlink.com 1.10,2013-11-23 11:05:00,
2013-11-23 05:20:00,63.0,62.0,30.18,ENE,59,4.0,10.0,95,0.00,,,0.00,weatherlink.com 1.10,2013-11-23 11:20:00,
2013-11-23 05:35:00,63.0,62.0,30.18,NE,34,6.0,8.0,95,0.00,,,0.00,weatherlink.com 1.10,2013-11-23 11:35:00,
2013-11-23 05:51:00,63.0,62.0,30.18,NE,44,0.0,6.0,95,0.00,,,0.00,weatherlink.com 1.10,2013-11-23 11:51:00,
2013-11-23 06:05:00,63.2,62.0,30.18,ENE,58,3.0,4.0,95,0.00,,,0.00,weatherlink.com 1.10,2013-11-23 12:05:00,
2013-11-23 06:20:00,63.2,62.0,30.19,NE,48,0.0,3.0,95,0.00,,,0.00,weatherlink.com 1.10,2013-11-23 12:20:00,
2013-11-23 06:35:00,63.3,62.0,30.19,NE,37,3.0,4.0,95,0.00,,,0.00,weatherlink.com 1.10,2013-11-23 12:35:00,
2013-11-23 06:50:00,63.4,62.0,30.19,NE,55,2.0,5.0,95,0.00,,,0.00,weatherlink.com 1.10,2013-11-23 12:50:00,
2013-11-23 07:05:00,63.5,62.0,30.19,NE,53,5.0,7.0,94,0.00,,,0.00,weatherlink.com 1.10,2013-11-23 13:05:00,
2013-11-23 07:20:00,63.4,62.0,30.20,East,80,5.0,9.0,94,0.00,,,0.00,weatherlink.com 1.10,2013-11-23 13:20:00,
2013-11-23 07:35:00,63.3,62.0,30.20,NE,39,6.0,9.0,94,0.00,,,0.00,weatherlink.com 1.10,2013-11-23 13:35:00,
2013-11-23 07:50:00,63.3,62.0,30.20,ENE,72,6.0,8.0,94,0.00,,,0.00,weatherlink.com 1.10,2013-11-23 13:50:00,
2013-11-23 08:05:00,63.4,62.0,30.20,ENE,61,7.0,9.0,94,0.00,,,0.00,weatherlink.com 1.10,2013-11-23 14:05:00,
2013-11-23 08:20:00,63.2,62.0,30.21,NE,41,7.0,11.0,94,0.00,,,0.00,weatherlink.com 1.10,2013-11-23 14:20:00,
2013-11-23 08:35:00,63.3,62.0,30.21,ENE,58,3.0,8.0,94,0.00,,,0.00,weatherlink.com 1.10,2013-11-23 14:35:00,
2013-11-23 08:50:00,63.0,61.0,30.21,NE,53,6.0,10.0,94,0.00,,,0.00,weatherlink.com 1.10,2013-11-23 14:50:00,
2013-11-23 09:05:00,62.8,61.0,30.22,North,1,3.0,10.0,95,0.00,,,0.00,weatherlink.com 1.10,2013-11-23 15:05:00,
2013-11-23 09:20:00,62.6,61.0,30.22,NE,41,3.0,9.0,95,0.00,,,0.00,weatherlink.com 1.10,2013-11-23 15:20:00,
2013-11-23 09:35:00,62.6,61.0,30.22,NNE,23,0.0,10.0,95,0.00,,,0.00,weatherlink.com 1.10,2013-11-23 15:35:00,
2013-11-23 09:50:00,62.8,61.0,30.22,NNE,24,2.0,10.0,95,0.00,,,0.00,weatherlink.com 1.10,2013-11-23 15:50:00,
2013-11-23 10:05:00,63.1,61.0,30.22,NE,43,6.0,8.0,94,0.00,,,0.00,weatherlink.com 1.10,2013-11-23 16:05:00,
2013-11-23 10:20:00,63.6,62.0,30.22,NNE,27,6.0,8.0,94,0.00,,,0.00,weatherlink.com 1.10,2013-11-23 16:20:00,
2013-11-23 10:35:00,63.8,62.0,30.22,NE,44,6.0,11.0,93,0.00,,,0.00,weatherlink.com 1.10,2013-11-23 16:35:00,
2013-11-23 10:50:00,64.0,62.0,30.22,NE,56,5.0,11.0,92,0.00,,,0.00,weatherlink.com 1.10,2013-11-23 16:50:00,
2013-11-23 11:05:00,64.0,62.0,30.22,ENE,57,7.0,10.0,92,0.00,,,0.00,weatherlink.com 1.10,2013-11-23 17:05:00,
2013-11-23 11:20:00,63.6,62.0,30.22,NNW,336,5.0,8.0,94,0.00,,,0.00,weatherlink.com 1.10,2013-11-23 17:20:00,
2013-11-23 11:35:00,62.1,61.0,30.21,North,352,8.0,13.0,96,0.00,,,0.00,weatherlink.com 1.10,2013-11-23 17:35:00,
2013-11-23 11:50:00,61.5,60.0,30.20,NE,44,5.0,15.0,96,0.00,,,0.00,weatherlink.com 1.10,2013-11-23 17:50:00,
2013-11-23 12:06:00,60.9,60.0,30.20,NW,322,10.0,17.0,97,0.00,,,0.00,weatherlink.com 1.10,2013-11-23 18:06:00,
2013-11-23 12:21:00,60.6,60.0,30.20,NNW,334,12.0,15.0,97,0.00,,,0.00,weatherlink.com 1.10,2013-11-23 18:21:00,
2013-11-23 12:36:00,60.3,60.0,30.20,NW,322,3.0,14.0,97,0.00,,,0.00,weatherlink.com 1.10,2013-11-23 18:36:00,
2013-11-23 12:51:00,59.9,59.0,30.20,North,357,8.0,16.0,96,0.00,,,0.00,weatherlink.com 1.10,2013-11-23 18:51:00,
2013-11-23 13:06:00,59.9,59.0,30.20,NNW,330,5.0,12.0,96,0.00,,,0.00,weatherlink.com 1.10,2013-11-23 19:06:00,
2013-11-23 13:21:00,59.8,59.0,30.20,North,10,10.0,16.0,96,0.00,,,0.00,weatherlink.com 1.10,2013-11-23 19:21:00,
2013-11-23 13:36:00,59.2,58.0,30.20,NNW,333,8.0,15.0,96,0.00,,,0.00,weatherlink.com 1.10,2013-11-23 19:36:00,
2013-11-23 13:51:00,58.6,58.0,30.19,North,357,9.0,15.0,96,0.00,,,0.00,weatherlink.com 1.10,2013-11-23 19:51:00,
2013-11-23 14:06:00,58.4,57.0,30.19,NNE,30,14.0,15.0,96,0.00,,,0.00,weatherlink.com 1.10,2013-11-23 20:06:00,
2013-11-23 14:21:00,58.2,57.0,30.19,NE,36,6.0,17.0,95,0.00,,,0.00,weatherlink.com 1.10,2013-11-23 20:21:00,
2013-11-23 14:36:00,58.1,57.0,30.20,NE,34,14.0,17.0,95,0.00,,,0.00,weatherlink.com 1.10,2013-11-23 20:36:00,
2013-11-23 14:51:00,57.6,56.0,30.20,NE,41,6.0,19.0,94,0.00,,,0.00,weatherlink.com 1.10,2013-11-23 20:51:00,
2013-11-23 15:06:00,57.2,56.0,30.21,NNE,23,6.0,19.0,94,0.00,,,0.00,weatherlink.com 1.10,2013-11-23 21:06:00,
2013-11-23 15:21:00,57.2,56.0,30.21,NNE,33,10.0,16.0,94,0.00,,,0.00,weatherlink.com 1.10,2013-11-23 21:21:00,
2013-11-23 15:36:00,57.2,55.0,30.21,North,358,8.0,16.0,92,0.00,,,0.00,weatherlink.com 1.10,2013-11-23 21:36:00,
2013-11-23 15:51:00,57.1,55.0,30.22,NNE,33,8.0,17.0,92,0.00,,,0.00,weatherlink.com 1.10,2013-11-23 21:51:00,
2013-11-23 16:06:00,56.8,55.0,30.22,NE,53,3.0,16.0,92,0.00,,,0.00,weatherlink.com 1.10,2013-11-23 22:06:00,
2013-11-23 16:21:00,56.2,54.0,30.22,NE,39,12.0,15.0,92,0.00,,,0.00,weatherlink.com 1.10,2013-11-23 22:21:00,
2013-11-23 16:36:00,55.5,54.0,30.22,NNE,12,10.0,15.0,94,0.00,,,0.00,weatherlink.com 1.10,2013-11-23 22:36:00,
2013-11-23 16:51:00,55.3,53.0,30.22,North,359,5.0,21.0,91,0.00,,,0.00,weatherlink.com 1.10,2013-11-23 22:51:00,
2013-11-23 17:06:00,55.1,52.0,30.23,NE,49,6.0,22.0,90,0.00,,,0.00,weatherlink.com 1.10,2013-11-23 23:06:00,
2013-11-23 17:21:00,54.4,52.0,30.24,NNE,24,11.0,24.0,91,0.00,,,0.00,weatherlink.com 1.10,2013-11-23 23:21:00,
2013-11-23 17:36:00,53.6,52.0,30.25,NNE,30,12.0,21.0,93,0.00,,,0.00,weatherlink.com 1.10,2013-11-23 23:36:00,
2013-11-23 17:51:00,53.6,52.0,30.25,NE,41,13.0,23.0,93,0.00,,,0.00,weatherlink.com 1.10,2013-11-23 23:51:00,
2013-11-23 18:06:00,53.8,51.0,30.25,NE,44,9.0,20.0,91,0.00,,,0.00,weatherlink.com 1.10,2013-11-24 00:06:00,
2013-11-23 18:21:00,54.1,51.0,30.26,NE,56,23.0,29.0,88,0.00,,,0.00,weatherlink.com 1.10,2013-11-24 00:21:00,
2013-11-23 18:37:00,54.0,50.0,30.26,ENE,62,7.0,29.0,87,0.00,,,0.00,weatherlink.com 1.10,2013-11-24 00:37:00,
2013-11-23 18:52:00,54.2,50.0,30.26,NE,37,20.0,23.0,86,0.00,,,0.00,weatherlink.com 1.10,2013-11-24 00:52:00,
2013-11-23 19:07:00,54.2,50.0,30.26,NNE,20,11.0,22.0,86,0.00,,,0.00,weatherlink.com 1.10,2013-11-24 01:07:00,
2013-11-23 19:22:00,54.2,50.0,30.27,NE,48,8.0,24.0,86,0.00,,,0.00,weatherlink.com 1.10,2013-11-24 01:22:00,
2013-11-23 19:37:00,53.6,50.0,30.27,NE,40,12.0,19.0,86,0.00,,,0.00,weatherlink.com 1.10,2013-11-24 01:37:00,
2013-11-23 19:52:00,53.6,50.0,30.28,NE,40,19.0,22.0,86,0.00,,,0.00,weatherlink.com 1.10,2013-11-24 01:52:00,
2013-11-23 20:07:00,53.5,50.0,30.28,North,10,9.0,22.0,86,0.00,,,0.00,weatherlink.com 1.10,2013-11-24 02:07:00,
2013-11-23 20:22:00,53.2,49.0,30.28,North,8,11.0,22.0,86,0.00,,,0.00,weatherlink.com 1.10,2013-11-24 02:22:00,
2013-11-23 20:37:00,52.8,49.0,30.28,NE,44,13.0,20.0,86,0.00,,,0.00,weatherlink.com 1.10,2013-11-24 02:37:00,
2013-11-23 20:52:00,52.6,48.0,30.29,NNW,345,10.0,25.0,84,0.00,,,0.00,weatherlink.com 1.10,2013-11-24 02:52:00,
2013-11-23 21:07:00,52.6,49.0,30.29,NE,40,13.0,18.0,86,0.00,,,0.00,weatherlink.com 1.10,2013-11-24 03:07:00,
2013-11-23 21:22:00,52.2,47.0,30.29,NE,39,8.0,23.0,83,0.00,,,0.00,weatherlink.com 1.10,2013-11-24 03:22:00,
2013-11-23 21:37:00,52.0,46.0,30.30,NNE,31,13.0,20.0,79,0.00,,,0.00,weatherlink.com 1.10,2013-11-24 03:37:00,
2013-11-23 21:52:00,51.8,47.0,30.30,NNE,33,15.0,18.0,82,0.00,,,0.00,weatherlink.com 1.10,2013-11-24 03:52:00,
2013-11-23 22:07:00,51.3,45.0,30.30,NE,37,9.0,21.0,79,0.00,,,0.00,weatherlink.com 1.10,2013-11-24 04:07:00,
2013-11-23 22:22:00,51.1,45.0,30.31,NE,49,13.0,25.0,79,0.00,,,0.00,weatherlink.com 1.10,2013-11-24 04:22:00,
2013-11-23 22:37:00,51.1,44.0,30.31,ENE,58,9.0,20.0,77,0.00,,,0.00,weatherlink.com 1.10,2013-11-24 04:37:00,
2013-11-23 22:52:00,51.0,44.0,30.32,North,11,8.0,20.0,76,0.00,,,0.00,weatherlink.com 1.10,2013-11-24 04:52:00,
2013-11-23 23:07:00,50.9,43.0,30.32,NE,39,7.0,20.0,74,0.00,,,0.00,weatherlink.com 1.10,2013-11-24 05:07:00,
2013-11-23 23:22:00,50.5,41.0,30.32,NE,43,17.0,28.0,71,0.00,,,0.00,weatherlink.com 1.10,2013-11-24 05:22:00,
2013-11-23 23:37:00,50.4,41.0,30.32,NNE,23,7.0,26.0,71,0.00,,,0.00,weatherlink.com 1.10,2013-11-24 05:37:00,
2013-11-23 23:52:00,50.5,42.0,30.32,NNE,31,15.0,22.0,73,0.00,,,0.00,weatherlink.com 1.10,2013-11-24 05:52:00,